Satellite-Ground Cal/Val Site Overpasses Predictions

Prediction of Satellite NPP Overpassing Cal/Val Site: Antarctic Dome C

Ground Cal/Val Site Location: Latitude: -75.10, Longitude: 123.35; Satellite-Ground Site NADIR distance within 100 km.

Table of predicted overpasses for the next 14.0 days since TLE Epoch: 10/9/2021
Interval Starting Time Ending Time Minimum Distance Time Minimum Distance (km)
1 10/09/2021 07:38:37 10/09/2021 07:39:04 10/09/2021 07:38:50 36.92
2 10/10/2021 07:19:51 10/10/2021 07:20:11 10/10/2021 07:20:01 73.01
3 10/12/2021 15:02:07 10/12/2021 15:02:30 10/12/2021 15:02:19 62.83
4 10/13/2021 14:43:16 10/13/2021 14:43:42 10/13/2021 14:43:29 46.57
5 10/14/2021 07:44:58 10/14/2021 07:45:18 10/14/2021 07:45:08 71.96
6 10/15/2021 07:26:06 10/15/2021 07:26:33 10/15/2021 07:26:19 35.81
7 10/18/2021 14:49:32 10/18/2021 14:50:01 10/18/2021 14:49:46 10.95
